Location: Grand Rapids
(42.9630°N, 85.6680°W)
Time: 01:51:26
(UTC-04:00)

A-11 Canister half - Pass Details

Date: 07 June 2024
Orbit: 1524 x 1684 km, 47.3° (Epoch: 21 June)

Event Time Altitude Azimuth Distance (km) Brightness Sun altitude
Rises 01:30:21 0° 295° (WNW) 4,718 11.9 -24.2°
Reaches altitude 10° 01:33:35 10° 289° (WNW) 3,750 11.3 -24.2°
Maximum altitude 01:42:15 42° 223° (SW) 2,154 9.4 -24.2°
Enters shadow 01:44:16 38° 197° (SSW) 2,282 9.4 -24.2°
Drops below altitude 10° 01:51:10 10° 157° (SSE) 3,852 - -24.2°
Sets 01:54:33 0° 151° (SSE) 4,857 - -24.2°
